[[{"header":{"parameterUnit":"m.s-1","parameterCategory":1,"la1":30.2991,"la2":30.254,"lo1":-89.0895,"lo2":-89.0444,"dy":0.0017,"dx":0.0017,"nx":28,"ny":28,"refTime":"2025-09-06T09:00:00:Z","depth":0,"parameterNumber":2,"parameterNumberName":"U-component_of_WINDS"},"data":[0,0,0,0,0,0,0,0,0,0,0,0,0,0,0,0,0,0,0,0,0,0,0,0,0,0,0,0,0,0,0,0,0,0,0,0,0,0,0,0,0,0,0,0,0,0,0,0,0,0,0,0,0,0,0,0,0,0,1.0529,1.0528,0,1.0483,1.0482,1.0481,1.0466,1.0466,1.0466,1.0466,1.0416,1.0415,1.0413,0,0,0,0,0,0,0,0,0,0,0,0,0,1.0599,1.0598,1.0529,1.0528,1.0527,1.0483,1.0482,1.0481,1.0466,1.0466,1.0466,1.0466,1.0417,1.0415,1.0413,0,0,0,0,0,0,0,0,0,0,0,0,0,1.0562,1.0598,1.0529,1.0514,1.0512,1.0483,1.0482,1.0481,1.0466,1.0466,1.0466,1.0466,1.0417,1.0415,1.0413,1.0394,0,0,1.0406,1.0405,0,0,0,0,0,0,0,0,1.0564,1.056,1.0517,1.0515,1.0513,1.048,1.0489,1.0452,1.0465,1.0483,1.0466,1.0466,1.0437,1.0433,1.0424,1.0391,1.0389,1.0406,1.0405,1.0404,1.0403,0,0,0,0,0,0,0,1.0567,1.0562,1.051,1.0516,1.0514,1.0509,1.0504,1.0482,1.0459,1.0482,1.048,1.0475,1.0436,1.0426,1.0423,1.0388,1.0406,1.0404,1.0403,1.0402,1.0335,1.0335,0,0,0,0,0,0,1.0572,1.0564,1.0512,1.0509,1.054,1.0507,1.0502,1.049,1.0459,1.0455,1.0475,1.0475,1.043,1.0425,1.0421,1.0395,1.0404,1.0402,1.04,1.0336,1.0335,1.0335,0,0,0,0,0,0,1.0574,1.0568,1.0514,1.0536,1.0529,1.0506,1.0493,1.0489,1.0479,1.0454,1.045,1.0469,1.043,1.0424,1.04,1.0393,1.0401,1.0399,1.0336,1.0336,1.0335,1.0343,0,0,0,0,0,0,1.0576,1.0569,1.0562,1.0536,1.0528,1.0495,1.0493,1.0488,1.0476,1.0475,1.0448,1.0444,1.043,1.0404,1.0398,1.039,1.0397,1.0337,1.0336,1.0335,1.0343,1.0343,1.0342,0,0,0,0,0,1.0579,1.0566,1.0562,1.0556,1.0519,1.0495,1.049,1.0475,1.0475,1.0468,1.0451,1.0444,1.0395,1.0401,1.0395,1.0386,1.0337,1.0336,1.0335,1.0344,1.0343,1.0343,0,0,0,0,0,0,1.0591,1.0562,1.0557,1.0536,1.0518,1.0492,1.0482,1.0475,1.0455,1.0455,1.0437,1.0431,1.0408,1.0395,1.0403,1.0364,1.0365,1.0363,1.0374,1.0373,1.0373,1.0376,1.0395,0,0,0,0,0,1.0592,1.0575,1.055,1.0534,1.0525,1.0505,1.0494,1.0484,1.0464,1.0456,1.0438,1.0418,1.0398,1.0385,1.0365,1.0342,1.0334,1.0332,1.0332,1.0331,1.0329,1.0314,1.0312,1.0332,1.0332,1.0332,0,0,1.0592,1.0574,1.0565,1.0536,1.0521,1.0503,1.0499,1.048,1.0466,1.0453,1.0429,1.0415,1.0392,1.0368,1.0356,1.0356,1.0322,1.033,1.033,1.0328,1.0313,1.0311,1.0309,1.0331,1.0331,1.0331,0,0,1.0583,1.0569,1.0553,1.0538,1.0515,1.0501,1.0497,1.0472,1.0462,1.0438,1.0427,1.041,1.0376,1.0359,1.0346,1.033,1.0322,1.0324,1.0321,1.0306,1.0305,1.0303,1.0296,1.0293,1.0322,1.0322,1.0322,0,1.0586,1.056,1.0545,1.0527,1.0514,1.0502,1.0484,1.047,1.0441,1.0432,1.0432,1.0388,1.0371,1.0342,1.0338,1.0329,1.0322,1.0326,1.0306,1.0305,1.0303,1.0296,1.0293,1.0322,1.0322,1.0322,1.0322,0,1.0564,1.0546,1.0536,1.0509,1.0495,1.0477,1.0458,1.0445,1.0436,1.0422,1.0397,1.0376,1.0351,1.0344,1.0335,1.0313,1.0313,1.031,1.031,1.0302,1.0294,1.0292,1.0323,1.0322,1.0322,1.0322,0,0,1.0563,1.0527,1.0524,1.0511,1.0484,1.0469,1.045,1.0426,1.0414,1.0394,1.0377,1.0348,1.0344,1.033,1.0318,1.0306,1.0292,1.0304,1.0303,1.0301,1.0264,1.0266,1.0263,1.0287,1.0286,1.0286,1.0266,0,1.055,1.0517,1.0502,1.0475,1.0457,1.0444,1.0427,1.0408,1.0394,1.0375,1.0359,1.0338,1.0336,1.0327,1.0314,1.0297,1.0284,1.0298,1.0269,1.0268,1.0274,1.026,1.0262,1.0244,1.0263,1.0263,1.0262,0,1.0531,1.0512,1.0482,1.0456,1.0448,1.0433,1.0409,1.0392,1.0369,1.036,1.0343,1.0332,1.031,1.0312,1.028,1.029,1.0277,1.0266,1.0265,1.0261,1.0264,1.0254,1.0239,1.0235,1.0258,1.0258,1.0259,0,1.0532,1.0498,1.0476,1.0465,1.0434,1.0424,1.041,1.0388,1.0374,1.0352,1.0343,1.0319,1.0305,1.0287,1.0269,1.0272,1.0238,1.0239,1.0228,1.0228,1.0221,1.0221,1.0202,1.0215,1.0215,1.0215,1.0215,0,1.0518,1.0501,1.0475,1.0462,1.0441,1.0423,1.0403,1.0388,1.0368,1.035,1.0337,1.032,1.0298,1.0278,1.0264,1.0239,1.0233,1.0224,1.022,1.0224,1.0225,1.0215,1.0215,1.0214,1.0214,1.0214,1.0214,0,1.0516,1.0498,1.0473,1.0445,1.0438,1.0424,1.0399,1.0385,1.037,1.0347,1.034,1.0317,1.0292,1.0273,1.0241,1.0231,1.0204,1.02,1.0212,1.021,1.0199,1.02,1.0171,1.0166,1.0183,1.0183,1.0183,0,1.0508,1.0494,1.0465,1.0452,1.0439,1.0419,1.0404,1.0386,1.0371,1.0343,1.0331,1.0306,1.0285,1.0246,1.0225,1.0199,1.0194,1.0186,1.019,1.0195,1.0192,1.0193,1.0191,1.0185,1.0185,1.0185,1.0185,0,1.0496,1.0488,1.0468,1.0444,1.0427,1.0408,1.0388,1.0378,1.0355,1.0339,1.0314,1.0297,1.0264,1.0238,1.0211,1.0195,1.0186,1.0184,1.018,1.0183,1.019,1.0185,1.0209,1.0184,1.0185,1.0185,1.0185,1.0185,1.049,1.0476,1.0453,1.0431,1.0414,1.0395,1.0379,1.0362,1.0341,1.0313,1.0303,1.0277,1.0252,1.0214,1.0198,1.0177,1.0176,1.017,1.0169,1.0167,1.0167,1.0194,1.0172,1.0172,1.0172,1.0172,1.0172,0,1.0476,1.0461,1.044,1.0412,1.0394,1.0388,1.0364,1.0349,1.0327,1.0305,1.0284,1.0254,1.0228,1.0205,1.0178,1.0165,1.016,1.0158,1.0158,1.0155,1.017,1.0176,1.0163,1.0163,1.0163,1.0163,1.0163,1.0163,1.0467,1.0443,1.0432,1.0398,1.0382,1.0357,1.0344,1.0326,1.0308,1.0275,1.0254,1.0239,1.0216,1.0187,1.0163,1.0156,1.0146,1.0146,1.0138,1.0153,1.0154,1.0155,1.016,1.0144,1.0144,1.0124,1.0124,1.0124]},{"header":{"parameterUnit":"m.s-1","parameterCategory":1,"la1":30.2991,"la2":30.254,"lo1":-89.0895,"lo2":-89.0444,"dy":0.0017,"dx":0.0017,"nx":28,"ny":28,"refTime":"2025-09-06T09:00:00:Z","depth":0,"parameterNumber":3,"parameterNumberName":"V-component_of_WINDS"},"data":[0,0,0,0,0,0,0,0,0,0,0,0,0,0,0,0,0,0,0,0,0,0,0,0,0,0,0,0,0,0,0,0,0,0,0,0,0,0,0,0,0,0,0,0,0,0,0,0,0,0,0,0,0,0,0,0,0,0,0.4355,0.4354,0,0.4335,0.4335,0.4335,0.4306,0.4306,0.4305,0.4305,0.4285,0.4285,0.4285,0,0,0,0,0,0,0,0,0,0,0,0,0,0.4365,0.4365,0.4355,0.4354,0.4354,0.4335,0.4335,0.4335,0.4307,0.4306,0.4305,0.4305,0.4285,0.4285,0.4285,0,0,0,0,0,0,0,0,0,0,0,0,0,0.4355,0.4365,0.4355,0.4338,0.4336,0.4336,0.4335,0.4335,0.4307,0.4306,0.4305,0.4304,0.4285,0.4285,0.4285,0.4299,0,0,0.4284,0.4284,0,0,0,0,0,0,0,0,0.4355,0.4354,0.4341,0.4339,0.4337,0.4323,0.4331,0.4323,0.4307,0.4318,0.4305,0.4304,0.4298,0.4297,0.4295,0.4298,0.4297,0.4284,0.4284,0.4284,0.4284,0,0,0,0,0,0,0,0.4356,0.4355,0.4347,0.434,0.4338,0.4331,0.4328,0.433,0.4312,0.4317,0.4315,0.4313,0.4297,0.4295,0.4294,0.4297,0.4284,0.4284,0.4284,0.4284,0.4309,0.4309,0,0,0,0,0,0,0.436,0.4356,0.4348,0.4346,0.4345,0.4331,0.4328,0.4328,0.4312,0.4309,0.4313,0.4312,0.4295,0.4294,0.4293,0.4307,0.4284,0.4284,0.4284,0.4308,0.4309,0.431,0,0,0,0,0,0,0.436,0.4359,0.4348,0.4351,0.4349,0.4332,0.4331,0.4328,0.4326,0.431,0.4306,0.4315,0.4295,0.4293,0.4297,0.4306,0.4284,0.4284,0.4307,0.4308,0.4309,0.4337,0,0,0,0,0,0,0.436,0.4359,0.4365,0.4351,0.4349,0.4353,0.4332,0.4328,0.4326,0.4323,0.431,0.4307,0.4294,0.4298,0.4297,0.4306,0.4284,0.4306,0.4307,0.4309,0.4335,0.4339,0.4342,0,0,0,0,0,0.4361,0.4374,0.4366,0.4365,0.4355,0.4354,0.4353,0.4338,0.4327,0.4332,0.4321,0.4307,0.4306,0.4298,0.4297,0.4306,0.4305,0.4307,0.4309,0.4333,0.4338,0.4342,0,0,0,0,0,0,0.439,0.4372,0.4362,0.4371,0.4364,0.4349,0.4355,0.4343,0.4339,0.4337,0.4318,0.4315,0.4321,0.4314,0.4306,0.4318,0.4303,0.4305,0.4322,0.4327,0.433,0.4331,0.4284,0,0,0,0,0,0.4397,0.4398,0.4382,0.4392,0.4389,0.4373,0.4371,0.436,0.4352,0.4349,0.4339,0.4331,0.4328,0.4327,0.4324,0.4334,0.433,0.434,0.4343,0.4346,0.4347,0.435,0.4354,0.4315,0.4315,0.4315,0,0,0.4413,0.4403,0.4404,0.4397,0.439,0.4391,0.437,0.4372,0.4372,0.4349,0.4352,0.4344,0.4334,0.4341,0.4343,0.4335,0.4357,0.4348,0.435,0.435,0.4352,0.4356,0.4359,0.4316,0.4316,0.4316,0,0,0.444,0.4434,0.444,0.4434,0.4424,0.4413,0.4414,0.4401,0.4394,0.4397,0.438,0.4379,0.4375,0.4369,0.4365,0.4389,0.4375,0.4388,0.4406,0.4409,0.4412,0.4415,0.4422,0.4425,0.439,0.439,0.439,0,0.4461,0.4461,0.4445,0.4447,0.4444,0.4423,0.4429,0.4423,0.4413,0.4411,0.4402,0.4396,0.4388,0.4392,0.4398,0.4396,0.4396,0.4389,0.4413,0.4415,0.4418,0.4424,0.4427,0.4391,0.4391,0.4391,0.4391,0,0.4485,0.4486,0.4492,0.4482,0.4479,0.4483,0.4467,0.4467,0.4456,0.4445,0.4447,0.4437,0.4431,0.4431,0.442,0.4433,0.4428,0.4417,0.4401,0.4423,0.4429,0.4431,0.4394,0.4393,0.4393,0.4392,0,0,0.4531,0.4511,0.4514,0.4508,0.4495,0.4495,0.4498,0.4491,0.449,0.4484,0.4484,0.4481,0.447,0.4466,0.4454,0.4457,0.4475,0.4445,0.4444,0.445,0.4486,0.4493,0.4497,0.4466,0.4467,0.4467,0.4486,0,0.4555,0.4558,0.4544,0.4551,0.455,0.453,0.4532,0.4524,0.4514,0.4512,0.4501,0.4498,0.4485,0.4482,0.4484,0.4472,0.4481,0.4471,0.4465,0.4465,0.4467,0.45,0.4508,0.4527,0.4488,0.4489,0.4489,0,0.4584,0.4578,0.4585,0.457,0.4569,0.4572,0.4564,0.4562,0.4552,0.4544,0.4539,0.4525,0.4526,0.4512,0.4511,0.4504,0.4501,0.4495,0.4495,0.4493,0.4478,0.4497,0.4533,0.4535,0.4493,0.4492,0.4492,0,0.4614,0.4608,0.4611,0.4608,0.4591,0.4593,0.4586,0.4575,0.4572,0.4565,0.4562,0.4556,0.4552,0.4547,0.4531,0.4523,0.4532,0.4517,0.4525,0.4525,0.4527,0.4527,0.4561,0.4527,0.4527,0.4527,0.4527,0,0.4642,0.4647,0.4625,0.4626,0.463,0.4613,0.4618,0.4609,0.4599,0.4598,0.4581,0.458,0.456,0.4557,0.4545,0.4545,0.4544,0.4537,0.4534,0.4538,0.4539,0.4535,0.4533,0.4528,0.4527,0.4527,0.4527,0,0.4677,0.4662,0.4664,0.4648,0.4644,0.4647,0.4633,0.4634,0.4623,0.4621,0.462,0.4603,0.4598,0.4582,0.4574,0.4565,0.4569,0.4563,0.4572,0.457,0.4578,0.4577,0.461,0.4613,0.4578,0.4579,0.4579,0,0.4695,0.4698,0.4682,0.468,0.4674,0.4671,0.4667,0.465,0.4647,0.4635,0.4636,0.463,0.4624,0.4617,0.4603,0.4596,0.4589,0.4601,0.4588,0.4591,0.4587,0.4587,0.4586,0.4604,0.4604,0.4604,0.4605,0,0.4728,0.472,0.4716,0.4709,0.4705,0.4699,0.4691,0.469,0.4671,0.4668,0.4663,0.4658,0.4649,0.4642,0.4632,0.4624,0.4611,0.4609,0.461,0.4614,0.4619,0.4615,0.4579,0.4608,0.4608,0.4608,0.4607,0.4607,0.4754,0.4755,0.4744,0.4739,0.4731,0.4725,0.4724,0.4712,0.4708,0.4699,0.4689,0.4684,0.4673,0.4658,0.4651,0.4647,0.464,0.4642,0.4642,0.4642,0.4644,0.462,0.4645,0.4645,0.4645,0.4645,0.4645,0,0.4785,0.4777,0.4772,0.4762,0.4758,0.4746,0.4737,0.4734,0.473,0.4721,0.4715,0.4708,0.4701,0.4687,0.4678,0.4678,0.4671,0.4676,0.4675,0.4673,0.4651,0.4651,0.4681,0.4681,0.4681,0.4681,0.4681,0.4681,0.4801,0.4801,0.4792,0.4789,0.478,0.4776,0.4771,0.4764,0.4756,0.4749,0.4744,0.4734,0.4722,0.4713,0.4705,0.4701,0.4698,0.4705,0.4699,0.4678,0.4675,0.4672,0.4671,0.4705,0.4705,0.472,0.472,0.4721]}]]